Find Vinasat

NORAD ID: 32767 Int'l Des: 2008-018 Owner: VNPT Country: VN operational
HEOCIRCULARGSOGEO

Current View

Loading 3D Globe...

About Vinasat

Description loading...

Upcoming Passes

Passes for default location (London). Set your location on the main map for personalized predictions.

Altitude History

Loading altitude history...

Two-Line Element Set

1 32767U 08018A 26150.17271758 -.00000316 00000-0 00000+0 0 9994
2 32767 0.0101 317.7112 0001581 116.0421 8.0731 1.00273530 66418
Epoch: May 30, 2026 • Age: 9 hours

Current Status

Altitude 35791.4 km
Velocity 3.07 km/s
Sub-Earth Point -0.04°S, 131.96°E
Launch Date Apr 18, 2008
Age 18.1 years
Type other

Technical Details

Classification Payload
Mass 2600.00 kg
Dry Mass 1200.00 kg
Total Mass 2600.00 kg
Length 5.00 m
Diameter 2.20 m
Span 26.00 m
Shape Box + 2 Pan
Manufacturer LMCSS
Bus Type A2100
Phase Status In Orbit
Owner/State VNPT/VN

Most Searched